Wind_Speed
14 15 16 18 19 22 23 22 19 20 22 23 24 25 25 25 27 31 33 34 34 33 31 31 32 33 33 34 35 36 37 38 39 39 40 38 36 36 38 39 39 39 40 39
13 14 14 14 14 15 16 18 20 22 23 24 25 26 26 27 29 32 33 32 31 28 27 29 30 31 33 35 36 37 39 39 39 39 41 41 39 38 38 40 41 41 41 41
12 10 9 8 9 11 15 18 21 24 25 26 28 29 29 30 31 31 31 29 27 25 26 27 28 31 34 35 37 37 38 39 40 40 40 40 40 39 39 40 41 41 42 42
9 7 7 8 10 13 15 16 17 19 23 27 29 31 29 30 29 28 27 25 24 24 26 28 29 31 32 33 34 36 38 38 39 40 40 40 40 39 39 40 40 41 41 41
8 7 7 8 10 12 14 14 15 15 17 21 24 27 25 24 24 23 23 23 23 24 26 28 29 31 32 32 33 35 36 37 38 39 39 39 39 38 38 38 38 39 39 39
8 8 8 8 8 10 11 12 12 13 14 16 18 21 19 18 18 19 20 21 22 24 26 28 30 32 32 32 33 35 36 36 37 38 39 39 39 38 38 38 38 38 39 40
8 8 8 7 6 7 9 9 9 9 11 12 14 17 17 17 17 19 19 21 23 26 28 29 30 32 32 32 33 35 36 36 37 37 39 40 40 40 39 39 39 39 39 40
4 6 7 7 7 7 7 8 8 7 7 7 11 15 16 17 19 22 23 24 27 28 28 29 30 32 33 33 34 35 36 36 37 37 38 39 40 41 41 41 41 41 40 41
3 3 6 8 9 9 8 8 9 9 8 8 11 15 18 20 22 25 26 27 28 28 29 30 31 32 33 34 35 35 36 36 36 37 38 38 39 40 41 42 42 42 42 42
7 5 6 8 9 9 10 10 11 12 13 12 10 12 17 20 23 25 26 28 29 30 31 31 32 33 33 35 36 36 37 37 37 37 36 37 38 39 40 41 42 42 42 43
9 7 6 9 10 10 11 12 13 14 15 17 16 14 18 21 23 25 27 29 31 32 32 32 33 34 35 36 37 37 37 37 37 37 37 37 38 38 38 39 40 41 42 42
9 8 7 9 10 11 12 14 15 17 17 19 21 20 21 23 25 27 29 31 33 34 34 35 35 36 37 37 38 38 38 38 37 37 37 37 37 37 37 37 38 39 39 40
9 9 9 10 12 14 15 16 18 20 21 21 23 25 25 26 28 30 32 33 35 36 37 37 37 38 38 38 39 39 39 38 38 38 37 36 36 35 35 35 35 36 36 36
10 10 11 11 13 16 17 18 20 23 24 25 26 28 28 29 30 32 33 35 36 38 39 40 40 40 40 40 40 39 39 39 38 37 37 36 36 35 34 33 33 33 32 32
13 12 13 14 16 17 19 20 22 25 27 28 28 29 30 30 31 33 36 38 40 41 42 42 43 43 43 42 41 40 39 39 38 38 37 36 35 34 33 32 31 30 29 29
16 16 15 16 19 20 22 24 25 26 26 27 28 30 31 33 36 38 40 42 44 44 45 45 45 46 45 44 43 41 40 40 39 37 36 35 34 33 31 30 29 28 27 26
18 18 18 18 20 22 24 25 25 25 26 28 30 33 34 36 39 42 44 45 47 48 48 48 48 48 47 46 45 44 42 41 39 37 36 34 33 32 30 29 28 27 25 23
20 21 21 21 22 24 26 26 25 26 28 30 33 36 38 40 43 46 48 50 51 52 53 53 52 51 50 48 47 45 43 41 39 38 36 34 33 32 30 28 27 25 23 22
24 25 26 26 27 27 26 26 27 30 33 33 37 40 43 46 47 50 52 54 56 57 58 57 56 55 53 51 49 47 43 41 40 38 36 35 33 31 30 28 27 25 22 20
28 28 29 30 31 31 30 28 30 35 38 40 43 47 49 51 54 55 56 57 58 59 60 60 59 58 56 54 51 48 44 41 40 39 37 35 33 31 30 29 26 24 21 19
29 30 31 31 33 35 34 35 37 40 43 46 49 52 55 57 59 61 63 64 64 65 65 64 63 61 59 56 53 49 46 42 41 40 38 36 34 32 30 28 25 23 21 18
30 31 32 33 35 37 38 41 43 45 48 52 54 57 60 62 64 66 68 69 70 70 69 68 66 64 61 58 55 52 48 46 43 41 39 38 35 33 30 27 25 23 20 18
30 31 33 35 37 40 43 45 48 51 53 56 59 62 64 67 69 71 72 73 73 72 70 68 66 64 61 58 56 54 51 49 46 44 41 39 36 33 30 27 25 23 21 19
32 34 36 39 41 43 46 49 52 54 57 60 63 66 69 71 73 74 74 74 71 70 67 65 63 60 57 56 55 54 53 50 48 45 42 38 35 34 31 29 26 24 22 20
34 36 38 41 43 46 49 52 55 57 60 63 66 68 71 72 73 72 70 68 66 63 60 58 57 54 52 52 50 51 52 50 49 46 42 39 37 35 32 30 28 25 24 21
37 38 40 43 46 49 52 54 58 61 64 66 68 69 70 69 68 66 63 60 58 55 52 50 48 48 47 45 45 47 48 48 49 47 43 40 38 35 33 31 29 27 25 23
Wind_Direction
198 203 209 219 224 228 235 238 237 240 242 245 250 255 261 265 272 277 279 280 282 286 292 296 298 299 297 295 293 290 287 285 281 280 279 280 280 278 276 276 277 278 279 277
185 194 207 213 219 221 227 228 225 229 236 242 246 252 257 262 270 274 276 278 281 286 292 298 299 298 297 295 295 292 291 290 288 285 283 283 282 280 278 277 276 276 277 277
195 197 197 209 218 222 227 231 230 230 235 245 252 257 262 267 273 274 276 278 283 289 294 297 297 296 296 295 294 292 292 291 290 287 285 284 282 280 277 276 276 276 276 278
210 210 210 219 232 235 239 246 247 244 240 242 251 258 262 268 272 273 275 278 284 290 293 295 296 297 298 297 295 294 293 292 291 289 288 286 285 283 280 278 277 277 278 279
224 228 233 239 249 253 255 260 263 259 251 247 249 258 265 269 273 275 280 286 287 291 293 296 299 302 301 300 297 296 294 293 291 290 289 288 287 286 284 282 280 279 279 280
235 241 249 258 265 267 268 269 268 265 261 255 254 261 269 278 283 283 286 288 290 295 298 302 304 305 305 303 301 300 298 295 293 291 290 289 288 287 286 285 283 281 281 281
238 243 250 258 267 277 281 281 276 266 265 266 267 271 279 284 289 291 292 292 297 301 304 306 308 308 309 308 306 304 301 299 296 293 290 288 287 286 286 285 284 284 283 283
248 244 249 260 274 291 295 292 293 287 281 275 274 278 284 289 291 295 298 300 304 306 308 310 312 313 312 313 311 310 307 304 301 297 293 289 286 285 284 284 284 284 284 284
317 284 266 271 282 288 290 289 295 299 301 296 287 288 291 292 293 296 301 306 310 313 315 316 316 315 314 315 315 314 312 309 305 301 297 293 289 287 285 284 284 284 285 285
336 320 289 279 275 276 281 285 291 298 302 301 296 301 301 297 297 301 306 310 313 316 316 316 316 317 317 317 317 317 315 313 310 306 301 297 293 290 287 286 285 285 285 285
326 326 305 289 285 281 284 290 294 297 300 303 303 306 300 298 299 303 306 309 312 313 314 315 316 317 318 317 317 316 315 314 313 310 305 301 296 292 290 288 286 285 285 286
324 327 316 300 297 300 301 302 302 300 300 301 302 304 299 301 304 306 309 310 311 312 312 313 313 314 314 314 315 315 315 314 314 312 309 305 301 297 293 291 289 288 287 286
334 330 326 314 309 308 308 306 302 299 297 298 299 299 302 306 307 308 308 309 308 308 307 307 307 308 309 310 311 311 312 312 312 311 310 308 305 301 297 293 291 290 289 288
336 329 322 314 305 302 301 299 297 295 296 297 296 298 303 307 308 306 304 304 303 303 303 303 304 305 306 307 308 308 308 309 310 310 309 308 305 302 299 297 294 293 291 290
329 324 317 309 304 303 302 299 298 296 296 295 297 299 302 304 303 301 301 300 300 300 300 301 301 301 302 303 304 305 305 306 307 308 308 307 306 303 300 298 297 295 294 292
327 324 320 314 308 306 304 304 303 301 299 298 298 298 300 300 300 299 298 297 297 296 296 296 297 298 299 300 301 302 302 302 304 305 305 304 304 304 300 297 297 296 294 293
323 321 318 314 310 307 305 309 308 305 300 297 295 295 294 293 293 293 292 293 293 294 294 294 295 297 297 298 299 300 300 300 300 302 301 301 301 301 299 295 295 295 293 293
318 316 316 316 314 313 313 313 311 305 299 296 295 293 292 292 292 292 293 294 294 294 295 295 296 296 295 295 295 296 297 296 295 296 298 297 297 296 295 293 292 291 291 290
319 321 321 321 318 315 314 315 310 304 299 299 296 294 293 293 292 291 292 293 293 293 293 293 293 293 292 292 291 292 292 291 291 291 292 292 291 291 290 288 286 286 285 284
321 321 321 320 317 315 313 312 306 302 301 300 297 295 295 295 294 294 293 291 291 290 291 291 290 290 288 288 287 287 287 285 284 285 286 285 285 286 284 282 280 280 279 278
320 320 318 316 313 309 311 309 304 300 298 298 297 297 297 297 297 297 296 295 294 293 292 291 290 289 288 286 284 281 280 278 278 278 279 279 279 278 277 274 271 271 271 270
317 315 313 310 307 304 305 303 301 300 300 300 300 299 299 298 297 296 296 295 295 294 293 292 290 289 287 284 281 278 274 271 270 270 271 272 272 272 269 265 262 262 262 261
313 311 307 305 304 304 304 304 303 303 302 301 301 300 299 298 297 297 297 296 296 295 295 293 291 288 285 281 277 273 270 266 262 261 262 263 264 263 259 255 253 253 252 252
312 310 307 306 306 306 305 304 304 304 303 302 301 301 300 299 299 298 298 298 297 297 296 293 291 289 285 280 275 268 265 260 256 254 254 255 255 254 251 247 245 244 243 242
312 310 308 307 307 306 306 306 306 306 304 303 302 301 300 300 299 299 299 299 299 298 296 294 293 291 287 281 274 267 262 256 250 247 246 246 247 247 244 239 236 235 235 234
312 311 310 309 310 309 309 308 308 307 306 305 304 302 302 303 303 303 303 303 303 302 300 298 296 294 290 283 274 266 258 251 247 245 241 239 240 238 237 233 228 228 229 229
Height
5880 5883 5884 5886 5889 5891 5892 5894 5896 5897 5897 5897 5897 5898 5898 5899 5898 5896 5895 5893 5892 5891 5890 5888 5886 5883 5880 5877 5874 5871 5869 5867 5863 5861 5859 5856 5856 5855 5854 5852 5850 5849 5848 5847
5878 5880 5882 5883 5885 5887 5888 5889 5890 5891 5891 5892 5892 5892 5892 5892 5891 5890 5888 5887 5886 5886 5885 5883 5880 5877 5873 5869 5866 5863 5860 5857 5854 5852 5850 5848 5848 5846 5845 5843 5841 5839 5838 5837
5877 5879 5880 5881 5882 5883 5883 5884 5885 5886 5887 5887 5887 5887 5887 5886 5885 5884 5882 5881 5881 5880 5879 5877 5874 5871 5867 5863 5859 5855 5851 5848 5845 5843 5840 5839 5837 5836 5835 5833 5832 5830 5828 5827
5875 5876 5877 5878 5879 5879 5880 5880 5881 5882 5883 5883 5883 5881 5882 5880 5879 5878 5876 5876 5875 5874 5872 5871 5868 5865 5861 5856 5852 5848 5844 5840 5837 5833 5831 5829 5827 5825 5824 5823 5822 5820 5818 5817
5873 5874 5875 5875 5876 5876 5876 5876 5876 5877 5877 5877 5877 5875 5876 5874 5873 5872 5871 5870 5868 5867 5866 5864 5861 5857 5853 5849 5844 5840 5836 5832 5828 5825 5822 5819 5817 5815 5814 5812 5811 5810 5808 5807
5872 5872 5873 5873 5873 5872 5872 5872 5872 5871 5871 5872 5871 5870 5869 5868 5866 5865 5864 5863 5862 5860 5858 5856 5853 5849 5844 5840 5836 5832 5828 5824 5820 5816 5813 5810 5808 5806 5804 5802 5801 5799 5798 5797
5870 5870 5870 5870 5870 5870 5869 5869 5869 5868 5867 5867 5866 5864 5864 5862 5860 5859 5857 5856 5854 5853 5851 5848 5844 5841 5836 5832 5827 5823 5819 5815 5811 5807 5804 5801 5798 5796 5794 5792 5790 5789 5788 5786
5868 5869 5868 5868 5868 5867 5866 5866 5866 5865 5864 5863 5861 5859 5858 5856 5854 5852 5851 5849 5847 5845 5842 5839 5836 5832 5828 5823 5819 5814 5810 5806 5802 5798 5794 5791 5788 5786 5784 5782 5780 5778 5777 5775
5867 5868 5867 5866 5865 5865 5864 5862 5862 5861 5860 5859 5857 5855 5853 5851 5849 5846 5844 5842 5839 5837 5834 5831 5828 5824 5820 5816 5811 5806 5801 5797 5793 5788 5784 5781 5778 5775 5773 5771 5769 5767 5765 5764
5866 5866 5865 5864 5863 5863 5862 5860 5859 5858 5856 5855 5854 5852 5849 5846 5843 5841 5838 5836 5833 5830 5828 5824 5821 5817 5813 5808 5803 5798 5793 5789 5784 5779 5775 5771 5768 5764 5762 5760 5758 5756 5754 5752
5864 5864 5864 5862 5860 5859 5859 5858 5856 5854 5852 5851 5849 5850 5844 5841 5839 5836 5834 5831 5828 5825 5821 5817 5813 5809 5805 5801 5796 5791 5785 5780 5776 5771 5766 5762 5758 5755 5752 5749 5746 5744 5742 5740
5863 5863 5861 5860 5858 5857 5856 5854 5852 5851 5849 5846 5844 5845 5839 5837 5834 5831 5828 5825 5821 5818 5814 5810 5806 5802 5797 5793 5788 5783 5778 5773 5768 5763 5758 5753 5749 5745 5742 5739 5736 5734 5731 5729
5862 5861 5860 5858 5858 5855 5853 5851 5849 5846 5844 5842 5839 5839 5833 5831 5828 5825 5821 5818 5814 5810 5806 5802 5798 5794 5789 5785 5780 5775 5770 5765 5760 5755 5750 5745 5740 5737 5733 5730 5727 5724 5722 5719
5861 5859 5858 5857 5854 5851 5849 5847 5844 5841 5838 5836 5833 5830 5827 5825 5822 5818 5814 5811 5807 5802 5798 5793 5789 5784 5780 5776 5771 5767 5761 5757 5752 5746 5741 5737 5732 5728 5725 5721 5718 5715 5713 5710
5858 5857 5855 5852 5850 5847 5845 5842 5840 5836 5833 5829 5826 5824 5822 5818 5814 5810 5806 5802 5797 5793 5788 5784 5779 5775 5770 5766 5762 5757 5753 5748 5743 5738 5733 5729 5725 5721 5717 5714 5711 5708 5705 5702
5855 5853 5851 5848 5845 5842 5839 5836 5833 5830 5826 5823 5820 5817 5814 5810 5805 5801 5796 5792 5787 5783 5778 5773 5769 5764 5760 5755 5751 5747 5743 5738 5734 5730 5725 5721 5717 5713 5709 5706 5703 5701 5698 5696
5851 5849 5847 5844 5840 5837 5834 5831 5827 5823 5820 5817 5813 5811 5806 5802 5797 5791 5786 5781 5776 5771 5766 5761 5756 5752 5747 5743 5739 5735 5732 5728 5724 5720 5716 5713 5709 5705 5702 5699 5697 5694 5692 5690
5848 5844 5841 5838 5835 5831 5829 5823 5820 5815 5811 5808 5804 5800 5795 5791 5786 5779 5773 5767 5762 5756 5751 5746 5742 5738 5734 5730 5726 5723 5720 5717 5713 5710 5707 5704 5701 5698 5695 5692 5690 5688 5686 5685
5842 5838 5834 5830 5827 5824 5821 5816 5811 5806 5802 5799 5794 5789 5783 5778 5773 5767 5760 5753 5747 5741 5735 5731 5726 5722 5718 5715 5712 5710 5707 5705 5702 5700 5697 5695 5692 5690 5688 5686 5684 5682 5681 5680
5835 5831 5828 5823 5819 5815 5814 5810 5804 5799 5792 5788 5782 5775 5769 5763 5757 5753 5746 5739 5733 5727 5721 5715 5710 5706 5702 5699 5696 5695 5693 5692 5690 5688 5686 5684 5683 5681 5680 5678 5677 5676 5675 5674
5828 5824 5821 5816 5811 5806 5803 5799 5794 5789 5784 5776 5769 5762 5755 5747 5741 5734 5727 5720 5713 5707 5701 5696 5691 5687 5683 5681 5679 5678 5677 5676 5676 5675 5674 5673 5672 5671 5670 5670 5670 5670 5669 5669
5822 5818 5813 5808 5803 5800 5794 5788 5783 5777 5770 5762 5755 5747 5739 5731 5723 5716 5708 5700 5693 5686 5680 5674 5670 5666 5662 5659 5658 5659 5659 5659 5660 5660 5661 5661 5661 5661 5661 5661 5661 5662 5663 5663
5816 5811 5806 5801 5797 5790 5783 5777 5770 5763 5755 5747 5739 5730 5721 5713 5704 5696 5687 5679 5671 5664 5657 5651 5646 5643 5640 5637 5635 5636 5638 5639 5642 5644 5646 5647 5648 5649 5650 5651 5653 5654 5656 5657
5809 5803 5797 5791 5785 5779 5772 5765 5757 5749 5740 5731 5722 5712 5702 5692 5683 5674 5665 5657 5649 5642 5634 5628 5623 5619 5616 5613 5611 5612 5614 5617 5621 5625 5629 5632 5634 5637 5639 5641 5643 5646 5648 5650
5801 5795 5789 5782 5776 5768 5761 5752 5744 5735 5725 5715 5705 5695 5684 5673 5663 5654 5645 5637 5628 5620 5613 5606 5601 5597 5594 5591 5589 5589 5590 5594 5600 5605 5611 5616 5620 5623 5627 5630 5633 5637 5641 5643
5793 5787 5780 5773 5765 5757 5749 5740 5730 5720 5709 5698 5687 5676 5665 5652 5641 5632 5624 5616 5608 5600 5593 5587 5581 5576 5572 5569 5568 5568 5569 5573 5580 5586 5593 5600 5605 5610 5614 5619 5623 5628 5632 5636